GW4598 Weather Reports


time (UTC)temp
C
wind
direction
speed
KPH
gust
KPH
rain 1hr
cm
rain 24hr
cm
rain mn
cm
humidity
%
barometer
mb
20260507221523 12 218 11.3 12.9 0.00 0.00 0.00 43 1007.0
20260507221020 13 234 12.9 14.5 0.00 0.00 0.00 44 1007.1
20260507220517 13 214 4.8 9.7 0.00 0.00 0.00 44 1007.0
20260507220015 13 181 3.2 3.2 0.00 0.00 0.00 44 1007.1
20260507215510 13 234 8.0 9.7 0.00 0.00 0.00 47 1007.0
20260507215009 13 123 1.6 3.2 0.00 0.00 0.00 40 1007.1
20260507214505 13 218 14.5 20.9 0.00 0.00 0.00 43 1007.1
20260507214001 13 250 9.7 11.3 0.00 0.00 0.00 45 1007.0
20260507213458 13 233 12.9 14.5 0.00 0.00 0.00 44 1006.9
20260507212954 13 255 3.2 3.2 0.00 0.00 0.00 40 1006.9
20260507212450 13 245 4.8 4.8 0.00 0.00 0.00 39 1006.8
20260507211947 13 124 1.6 1.6 0.00 0.00 0.00 42 1006.9
20260507211443 13 275 6.4 8.0 0.00 0.00 0.00 40 1006.9
20260507210940 13 170 1.6 3.2 0.00 0.00 0.00 41 1006.8
20260507210438 13 225 4.8 4.8 0.00 0.00 0.00 43 1006.8
20260507205934 13 286 8.0 11.3 0.00 0.00 0.00 42 1007.0
20260507205432 13 236 6.4 9.7 0.00 0.00 0.00 42 1006.9
20260507204928 13 226 8.0 12.9 0.00 0.00 0.00 43 1006.8
20260507204424 13 239 14.5 17.7 0.00 0.00 0.00 46 1006.7
20260507203922 13 261 8.0 11.3 0.00 0.00 0.00 46 1006.8
20260507203420 13 133 4.8 4.8 0.00 0.00 0.00 41 1006.7
20260507202916 13 196 6.4 8.0 0.00 0.00 0.00 46 1006.8
20260507202412 13 29 4.8 4.8 0.00 0.00 0.00 46 1006.7
20260507201908 13 123 0.0 1.6 0.00 0.00 0.00 48 1006.7
20260507201403 13 233 4.8 4.8 0.00 0.00 0.00 43 1006.8
20260507200900 13 229 8.0 11.3 0.00 0.00 0.00 44 1006.8
20260507200356 14 76 1.6 1.6 0.00 0.00 0.00 44 1006.8
20260507195852 14 232 11.3 14.5 0.00 0.00 0.00 44 1006.8
20260507195350 13 169 3.2 3.2 0.00 0.00 0.00 48 1007.0
20260507194847 14 240 4.8 4.8 0.00 0.00 0.00 44 1006.9
20260507194343 14 246 4.8 8.0 0.00 0.00 0.00 43 1007.1
20260507193840 13 82 1.6 3.2 0.00 0.00 0.00 47 1007.0
20260507193337 13 237 4.8 4.8 0.00 0.00 0.00 47 1007.0
20260507192833 13 323 12.9 17.7 0.00 0.00 0.00 50 1006.9
20260507192330 13 226 8.0 11.3 0.00 0.00 0.00 46 1007.2
20260507191826 13 307 4.8 4.8 0.00 0.00 0.00 44 1007.0
20260507191322 13 246 3.2 3.2 0.00 0.00 0.00 48 1007.1
20260507190819 13 54 3.2 3.2 0.00 0.00 0.00 46 1007.2
20260507190318 13 118 1.6 1.6 0.00 0.00 0.00 46 1007.3
20260507185816 14 296 4.8 8.0 0.00 0.00 0.00 45 1007.4
20260507185313 13 297 3.2 4.8 0.00 0.00 0.00 44 1007.3
20260507184810 13 351 4.8 9.7 0.00 0.00 0.00 49 1007.2
20260507184308 13 174 1.6 3.2 0.00 0.00 0.00 47 1007.2
20260507183804 12 272 6.4 8.0 0.00 0.00 0.00 49 1007.4
20260507183301 13 162 3.2 3.2 0.00 0.00 0.00 48 1007.5
20260507182800 13 71 1.6 1.6 0.00 0.00 0.00 49 1007.5
20260507182300 13 241 4.8 4.8 0.00 0.00 0.00 51 1007.4
20260507181756 13 225 4.8 8.0 0.00 0.00 0.00 49 1007.4
20260507181253 13 57 3.2 3.2 0.00 0.00 0.00 45 1007.4
20260507180749 13 212 4.8 4.8 0.00 0.00 0.00 53 1007.4
20260507180246 13 92 3.2 4.8 0.00 0.00 0.00 52 1007.5
20260507175742 14 311 6.4 8.0 0.00 0.00 0.00 45 1007.5
20260507175234 13 219 4.8 4.8 0.00 0.00 0.00 48 1007.3
20260507174731 13 240 8.0 9.7 0.00 0.00 0.00 51 1007.3
20260507174229 14 163 4.8 8.0 0.00 0.00 0.00 44 1007.3
20260507173727 13 41 4.8 4.8 0.00 0.00 0.00 42 1007.4
20260507173223 13 110 4.8 8.0 0.00 0.00 0.00 52 1007.5
20260507172719 12 247 8.0 11.3 0.00 0.00 0.00 52 1007.5
20260507172216 13 97 3.2 3.2 0.00 0.00 0.00 50 1007.6
20260507171711 13 238 8.0 11.3 0.00 0.00 0.00 51 1007.6
20260507171209 13 223 8.0 9.7 0.00 0.00 0.00 56 1007.5
20260507170705 12 63 1.6 1.6 0.00 0.00 0.00 57 1007.7
20260507170202 12 216 4.8 4.8 0.00 0.00 0.00 60 1007.8
20260507165657 12 157 4.8 4.8 0.00 0.00 0.00 60 1007.7
20260507165148 12 210 8.0 9.7 0.00 0.00 0.00 61 1008.0
20260507164644 12 168 6.4 9.7 0.00 0.00 0.00 65 1007.8
20260507164142 11 61 1.6 3.2 0.00 0.00 0.00 68 1008.0
20260507163638 11 221 6.4 8.0 0.00 0.00 0.00 70 1007.9
20260507163137 11 97 1.6 1.6 0.00 0.00 0.00 70 1008.1
20260507162632 12 172 3.2 4.8 0.00 0.00 0.00 69 1008.1
20260507162129 12 239 9.7 11.3 0.00 0.00 0.00 66 1007.9
20260507161625 12 227 4.8 4.8 0.00 0.00 0.00 63 1008.0
20260507161122 11 246 6.4 9.7 0.00 0.00 0.00 69 1007.8
20260507160618 12 249 6.4 9.7 0.00 0.00 0.00 65 1007.9
20260507160115 12 229 8.0 9.7 0.00 0.00 0.00 63 1008.0
20260507155609 12 248 8.0 9.7 0.00 0.00 0.00 68 1008.0
20260507155106 12 241 6.4 9.7 0.00 0.00 0.00 67 1008.2
20260507154603 12 224 11.3 12.9 0.00 0.00 0.00 67 1008.2
20260507154100 11 241 11.3 12.9 0.00 0.00 0.00 69 1008.4
20260507153552 12 245 8.0 11.3 0.00 0.00 0.00 65 1008.6
20260507153048 12 222 4.8 4.8 0.00 0.00 0.00 67 1008.7
20260507152544 12 220 3.2 4.8 0.00 0.00 0.00 67 1008.5
20260507152040 12 169 4.8 4.8 0.00 0.00 0.00 68 1008.5
20260507151536 12 53 4.8 8.0 0.00 0.00 0.00 66 1008.6
20260507151033 12 303 4.8 9.7 0.00 0.00 0.00 67 1008.6
20260507150530 12 176 3.2 4.8 0.00 0.00 0.00 65 1008.5
20260507150022 12 233 4.8 8.0 0.00 0.00 0.00 66 1008.6
20260507145516 12 221 1.6 1.6 0.00 0.00 0.00 66 1008.4
20260507145015 12 231 4.8 4.8 0.00 0.00 0.00 67 1008.5
20260507144511 12 37 4.8 8.0 0.00 0.00 0.00 66 1008.6
20260507144009 11 198 8.0 16.1 0.00 0.00 0.00 67 1008.4
20260507143506 11 229 8.0 9.7 0.00 0.00 0.00 69 1008.4
20260507143003 12 211 12.9 16.1 0.00 0.00 0.00 63 1008.2
20260507142458 12 218 11.3 16.1 0.00 0.00 0.00 70 1008.2
20260507141955 12 259 3.2 3.2 0.00 0.00 0.00 64 1008.4
20260507141451 12 29 4.8 4.8 0.00 0.00 0.00 68 1008.0
20260507140948 12 17 3.2 3.2 0.00 0.00 0.00 67 1008.1
20260507140444 12 233 6.4 8.0 0.00 0.00 0.00 65 1008.2
20260507135942 12 299 3.2 3.2 0.00 0.00 0.00 62 1008.4
20260507135439 12 114 1.6 1.6 0.00 0.00 0.00 67 1008.5
20260507134936 11 42 4.8 4.8 0.00 0.00 0.00 63 1008.1
20260507134432 11 225 6.4 9.7 0.00 0.00 0.00 65 1008.4
20260507133928 12 195 8.0 9.7 0.00 0.00 0.00 63 1008.4
20260507133424 12 131 1.6 3.2 0.00 0.00 0.00 66 1008.5
20260507132917 11 23 3.2 4.8 0.00 0.00 0.00 64 1008.5
20260507132412 11 145 3.2 3.2 0.00 0.00 0.00 66 1008.6
20260507131909 11 258 4.8 8.0 0.00 0.00 0.00 69 1008.6
20260507131407 11 58 1.6 1.6 0.00 0.00 0.00 68 1008.6
20260507130904 11 137 0.0 1.6 0.00 0.00 0.00 67 1008.7
20260507130401 11 7 1.6 3.2 0.00 0.00 0.00 65 1008.7
20260507125900 10 309 3.2 3.2 0.00 0.00 0.00 68 1008.6
20260507125356 10 280 3.2 3.2 0.00 0.00 0.00 74 1008.6
20260507124854 11 125 1.6 3.2 0.00 0.00 0.00 68 1008.7
20260507124350 10 177 1.6 3.2 0.00 0.00 0.00 72 1008.6
20260507123849 11 213 4.8 4.8 0.00 0.00 0.00 70 1008.7
20260507123345 11 84 1.6 3.2 0.00 0.00 0.00 70 1008.9
20260507122842 10 69 1.6 1.6 0.00 0.00 0.00 76 1008.7
20260507122337 11 229 6.4 9.7 0.00 0.00 0.00 72 1008.8
20260507121834 10 56 1.6 1.6 0.00 0.00 0.00 72 1008.6
20260507121329 10 51 1.6 3.2 0.00 0.00 0.00 74 1008.7
20260507120826 11 80 1.6 4.8 0.00 0.00 0.00 72 1008.8
20260507120322 10 108 0.0 0.0 0.00 0.00 0.00 75 1008.7
20260507115819 10 185 4.8 4.8 0.00 0.00 0.00 76 1008.6
20260507115315 10 160 1.6 1.6 0.00 0.00 0.00 77 1008.7
20260507114811 10 107 1.6 1.6 0.00 0.00 0.00 77 1008.6
20260507114308 9 75 0.0 1.6 0.00 0.00 0.00 83 1008.8
20260507113805 8 131 1.6 3.2 0.00 0.00 0.00 83 1008.9
20260507113302 8 173 3.2 3.2 0.00 0.00 0.00 83 1008.8
20260507112800 8 129 0.0 1.6 0.00 0.00 0.00 84 1008.7
20260507112256 8 67 1.6 1.6 0.00 0.00 0.00 85 1008.6
20260507111754 7 41 3.2 3.2 0.00 0.00 0.00 87 1008.7
20260507111245 7 108 1.6 1.6 0.00 0.00 0.00 88 1008.7
20260507110741 7 106 1.6 1.6 0.00 0.00 0.00 89 1008.6
20260507110238 7 75 0.0 0.0 0.00 0.00 0.00 90 1008.5
20260507105735 6 80 0.0 0.0 0.00 0.00 0.00 90 1008.5
20260507105230 7 81 0.0 0.0 0.00 0.00 0.00 91 1008.7
20260507104728 7 74 0.0 0.0 0.00 0.00 0.00 91 1008.6
20260507104225 7 89 0.0 0.0 0.00 0.00 0.00 91 1008.6
20260507103720 6 103 0.0 0.0 0.00 0.00 0.00 91 1008.7
20260507103216 6 144 1.6 1.6 0.00 0.00 0.00 92 1008.4
20260507102713 6 67 1.6 1.6 0.00 0.00 0.00 92 1008.2
20260507102210 6 41 1.6 1.6 0.00 0.00 0.00 92 1008.6
20260507101706 7 101 0.0 0.0 0.00 0.00 0.00 93 1008.8
20260507101201 7 100 0.0 1.6 0.00 0.00 0.00 93 1008.9
20260507100659 7 81 0.0 0.0 0.00 0.00 0.00 93 1008.6
20260507100157 6 91 0.0 0.0 0.00 0.00 0.00 92 1008.6
20260507095655 7 77 0.0 0.0 0.00 0.00 0.00 92 1009.0
20260507095151 7 103 0.0 1.6 0.00 0.00 0.00 93 1008.8
20260507094647 7 75 0.0 0.0 0.00 0.00 0.00 92 1008.7
20260507094144 7 105 0.0 0.0 0.00 0.00 0.00 93 1008.7
20260507093641 7 111 0.0 1.6 0.00 0.00 0.00 92 1008.6
20260507093141 7 72 1.6 1.6 0.00 0.00 0.00 93 1008.7
20260507092636 7 71 1.6 1.6 0.00 0.00 0.00 93 1008.2
20260507092133 7 82 0.0 1.6 0.00 0.00 0.00 94 1008.5
20260507091630 7 172 1.6 1.6 0.00 0.00 0.00 94 1008.7
20260507091126 6 270 3.2 4.8 0.00 0.00 0.00 93 1008.2
20260507090622 7 83 0.0 0.0 0.00 0.00 0.00 94 1008.1
20260507090120 7 99 0.0 0.0 0.00 0.00 0.00 94 1008.0
20260507085616 7 32 3.2 3.2 0.00 0.00 0.00 93 1008.0
20260507085113 7 166 1.6 3.2 0.00 0.00 0.00 94 1007.9
20260507084610 7 98 0.0 0.0 0.00 0.00 0.00 93 1008.0
20260507084106 7 16 1.6 3.2 0.00 0.00 0.00 93 1008.0
20260507083603 7 74 0.0 0.0 0.00 0.00 0.00 93 1008.2
20260507083100 7 80 0.0 1.6 0.00 0.00 0.00 93 1008.1
20260507082555 7 83 0.0 0.0 0.00 0.00 0.00 93 1007.8
20260507082052 7 67 0.0 1.6 0.00 0.00 0.00 93 1007.9
20260507081548 7 110 0.0 1.6 0.00 0.00 0.00 93 1008.2
20260507081045 7 80 1.6 1.6 0.00 0.00 0.00 93 1008.1
20260507080541 7 63 0.0 1.6 0.00 0.00 0.00 93 1008.2
20260507080038 7 84 0.0 1.6 0.00 0.00 0.00 93 1008.0
20260507075533 7 71 0.0 0.0 0.00 0.00 0.00 92 1007.8
20260507075030 7 105 0.0 0.0 0.00 0.00 0.00 92 1007.6
20260507074527 7 73 0.0 0.0 0.00 0.00 0.00 92 1007.7
20260507074026 7 53 1.6 3.2 0.00 0.00 0.00 92 1007.5
20260507073521 7 78 0.0 1.6 0.00 0.00 0.00 92 1007.9
20260507073018 7 335 3.2 3.2 0.00 0.00 0.00 92 1007.8
20260507072515 7 72 1.6 3.2 0.00 0.00 0.00 92 1007.5
20260507072013 7 110 0.0 1.6 0.00 0.00 0.00 93 1007.5
20260507071510 7 315 3.2 3.2 0.00 0.00 0.00 93 1007.5
20260507071006 7 28 3.2 3.2 0.00 0.00 0.00 94 1007.6
20260507070504 7 36 0.0 1.6 0.00 0.00 0.00 96 1007.6
20260507070001 7 83 0.0 1.6 0.00 0.00 0.00 97 1007.5
20260507065457 7 56 1.6 1.6 0.00 0.00 0.00 97 1007.6
20260507064954 7 85 0.0 0.0 0.00 0.00 0.00 97 1007.6
20260507064452 7 77 0.0 1.6 0.00 0.00 0.00 97 1007.5
20260507063950 7 81 0.0 0.0 0.00 0.00 0.00 97 1007.3
20260507063447 8 90 0.0 0.0 0.00 0.00 0.00 97 1007.8
20260507062944 7 74 0.0 1.6 0.00 0.00 0.00 96 1007.7
20260507062441 8 76 0.0 1.6 0.00 0.00 0.00 96 1007.3
20260507061938 8 106 0.0 0.0 0.00 0.00 0.00 96 1007.5
20260507061436 8 163 1.6 3.2 0.00 0.00 0.00 96 1007.5
20260507060934 8 74 1.6 1.6 0.00 0.00 0.00 96 1007.6
20260507060431 8 238 3.2 4.8 0.00 0.00 0.00 96 1007.5
20260507055927 8 107 0.0 0.0 0.00 0.00 0.00 95 1007.2
20260507055422 8 102 0.0 0.0 0.00 0.00 0.00 96 1007.3
20260507054914 8 79 0.0 0.0 0.00 0.00 0.00 95 1007.3
20260507054410 8 93 1.6 1.6 0.00 0.00 0.00 96 1007.2
20260507053908 8 65 1.6 1.6 0.00 0.00 0.00 96 1007.1
20260507053405 8 79 1.6 1.6 0.00 0.00 0.00 96 1007.1
20260507052904 8 106 1.6 1.6 0.00 0.00 0.00 96 1007.0
20260507052400 8 169 1.6 1.6 0.00 0.00 0.00 97 1007.3
20260507051857 9 218 4.8 4.8 0.00 0.00 0.00 96 1007.4
20260507051355 8 130 0.0 1.6 0.00 0.00 0.00 96 1007.2
20260507050852 8 76 0.0 1.6 0.00 0.00 0.00 96 1007.2
20260507050348 8 79 0.0 0.0 0.00 0.00 0.00 96 1006.9
20260507045845 9 111 3.2 3.2 0.00 0.00 0.00 96 1006.9
20260507045341 9 203 4.8 4.8 0.00 0.00 0.00 96 1007.1
20260507044833 9 67 0.0 0.0 0.00 0.00 0.00 96 1007.3
20260507044329 9 152 3.2 3.2 0.00 0.00 0.00 96 1007.1
20260507043825 10 106 0.0 1.6 0.00 0.00 0.00 96 1007.2
20260507043322 10 85 0.0 0.0 0.00 0.00 0.00 96 1007.2
20260507042819 10 209 3.2 4.8 0.00 0.00 0.00 96 1007.3
20260507042314 10 239 6.4 8.0 0.00 0.00 0.00 96 1007.2
20260507041811 10 208 3.2 3.2 0.00 0.00 0.00 96 1007.1
20260507041308 9 179 3.2 3.2 0.00 0.00 0.00 97 1007.0
20260507040805 10 193 3.2 3.2 0.00 0.00 0.00 97 1006.8
20260507040301 10 60 1.6 3.2 0.00 0.00 0.00 98 1006.8
20260507035757 10 113 1.6 1.6 0.00 0.51 0.51 98 1007.0
20260507035252 10 77 0.0 1.6 0.00 0.51 0.51 98 1007.0
20260507034750 10 51 1.6 1.6 0.00 0.51 0.51 98 1006.9
20260507034247 10 102 0.0 1.6 0.00 0.51 0.51 98 1006.9
20260507033746 10 148 1.6 1.6 0.00 0.51 0.51 97 1006.9
20260507033243 10 92 3.2 3.2 0.00 0.51 0.51 97 1007.1
20260507032740 11 220 9.7 12.9 0.00 0.51 0.51 96 1006.9
20260507032236 11 244 9.7 12.9 0.00 0.51 0.51 95 1006.9
20260507031732 11 219 4.8 4.8 0.00 0.51 0.51 95 1006.8
20260507031229 11 245 6.4 12.9 0.00 0.51 0.51 97 1006.8
20260507030726 11 263 11.3 14.5 0.00 0.51 0.51 98 1007.1
20260507030224 11 94 3.2 3.2 0.00 0.51 0.51 99 1006.7
20260507025721 12 102 0.0 0.0 0.00 0.51 0.51 99 1006.7
20260507025218 12 116 0.0 0.0 0.00 0.51 0.51 99 1006.6
20260507024716 12 83 0.0 0.0 0.00 0.51 0.51 99 1006.5
20260507024213 12 158 1.6 4.8 0.00 0.51 0.51 99 1006.5
20260507023708 12 67 1.6 1.6 0.18 0.51 0.51 99 1006.4
20260507023206 12 89 0.0 1.6 0.18 0.51 0.51 99 1006.5
20260507022703 13 91 0.0 0.0 0.00 0.48 0.48 99 1006.6
20260507022158 13 28 4.8 4.8 0.00 0.48 0.48 99 1006.5
20260507021655 13 125 3.2 3.2 0.00 0.48 0.48 99 1006.3
20260507021150 13 245 4.8 8.0 0.00 0.48 0.48 99 1006.4
20260507020649 13 222 8.0 9.7 0.00 0.48 0.48 99 1006.3
20260507020144 13 216 9.7 11.3 0.00 0.48 0.48 99 1006.2
20260507015643 13 237 8.0 9.7 0.00 0.48 0.48 99 1006.3
20260507015140 13 238 8.0 9.7 0.00 0.48 0.48 99 1006.4
20260507014636 13 215 8.0 9.7 0.00 0.48 0.48 99 1006.3
20260507014132 13 237 9.7 11.3 0.00 0.48 0.48 99 1006.5
20260507013630 13 234 9.7 11.3 0.00 0.48 0.48 99 1006.4
20260507013126 13 218 8.0 11.3 0.00 0.48 0.48 99 1006.2
20260507012624 13 222 9.7 11.3 0.00 0.48 0.48 99 1006.4
20260507012119 13 229 11.3 12.9 0.00 0.48 0.48 99 1006.4
20260507011618 13 231 11.3 12.9 0.00 0.48 0.48 99 1006.4
20260507011113 13 228 8.0 12.9 0.00 0.48 0.48 99 1006.4
20260507010609 13 216 8.0 9.7 0.00 0.48 0.48 99 1006.3
20260507010104 13 209 4.8 4.8 0.00 0.48 0.48 99 1006.5
20260507005602 13 194 4.8 8.0 0.00 0.48 0.48 99 1006.4
20260507005058 13 236 6.4 8.0 0.00 0.48 0.48 99 1006.4
20260507004555 13 197 6.4 8.0 0.00 0.48 0.48 99 1006.6
20260507004053 13 223 6.4 8.0 0.00 0.48 0.48 99 1006.3
20260507003548 13 227 8.0 9.7 0.00 0.48 0.48 99 1006.6
20260507003043 13 238 8.0 8.0 0.00 0.48 0.48 99 1006.6
20260507002540 13 211 9.7 11.3 0.00 0.48 0.48 99 1006.5
20260507002036 13 165 6.4 8.0 0.00 0.48 0.48 99 1006.3
20260507001533 13 162 4.8 8.0 0.00 0.48 0.48 99 1006.3
20260507001031 13 231 11.3 11.3 0.00 0.48 0.48 99 1006.3
20260507000527 13 225 6.4 11.3 0.00 0.48 0.48 99 1006.3
20260507000023 13 209 8.0 9.7 0.00 0.48 0.48 99 1006.2
20260506235520 13 202 8.0 9.7 0.00 0.48 0.48 99 1006.1
20260506235015 13 193 9.7 11.3 0.00 0.48 0.48 99 1006.2
20260506234513 13 233 8.0 9.7 0.00 0.48 0.48 99 1006.2
20260506234010 13 206 11.3 14.5 0.00 0.48 0.48 99 1006.4
20260506233507 13 202 11.3 12.9 0.00 0.48 0.48 99 1006.4
20260506233004 13 209 9.7 11.3 0.00 0.48 0.48 99 1006.4
20260506232500 13 191 8.0 11.3 0.00 0.48 0.48 99 1006.4
20260506231955 13 200 12.9 16.1 0.00 0.48 0.48 99 1006.3
20260506231453 13 233 8.0 9.7 0.00 0.48 0.48 99 1006.5
20260506230950 13 233 9.7 11.3 0.00 0.48 0.48 99 1006.4
20260506230445 13 199 14.5 16.1 0.00 0.48 0.48 98 1006.5
20260506225937 13 222 8.0 9.7 0.00 0.48 0.48 98 1006.4
20260506225435 13 220 8.0 11.3 0.00 0.48 0.48 98 1006.6
20260506224931 13 180 8.0 9.7 0.00 0.48 0.48 98 1006.3
20260506224429 13 204 12.9 12.9 0.00 0.48 0.48 99 1006.5
20260506223925 13 218 8.0 11.3 0.00 0.48 0.48 99 1006.4
20260506223420 13 215 11.3 14.5 0.00 0.48 0.48 99 1006.5
20260506222918 14 200 11.3 14.5 0.00 0.48 0.48 99 1006.6
20260506222414 14 217 11.3 17.7 0.00 0.48 0.48 99 1006.6
20260506221912 14 245 3.2 4.8 0.00 0.48 0.48 99 1006.6